This is the latest recevied weather packets stored in our database for station/object W8DRH-13. If no packets are shown the sender has not sent any weather packets the latest 10 day(s).
| Time | Temp. | Humidity | Pressure | Rain* | Wind** | Luminosity | Snow |
|---|---|---|---|---|---|---|---|
| 1777326603 | 22.78° C | 61% | 1011.4 hPa | 0 mm | - | 31 W/m² | - |
| 1777326299 | 22.78° C | 61% | 1011.3 hPa | 0 mm | - | 36 W/m² | - |
| 1777325997 | 22.78° C | 61% | 1011.3 hPa | 0 mm | - | 39 W/m² | - |
| 1777325695 | 22.78° C | 62% | 1011 hPa | 0 mm | - | 48 W/m² | - |
| 1777325393 | 22.78° C | 62% | 1011 hPa | 0 mm | - | 59 W/m² | - |
| 1777325090 | 22.78° C | 62% | 1010.9 hPa | 0 mm | - | 62 W/m² | - |
| 1777324786 | 22.78° C | 61% | 1010.9 hPa | 0 mm | - | 69 W/m² | - |
| 1777324485 | 22.78° C | 61% | 1010.8 hPa | 0 mm | - | 75 W/m² | - |
| 1777324181 | 22.78° C | 60% | 1011.3 hPa | 0 mm | - | 82 W/m² | - |
| 1777323880 | 22.78° C | 60% | 1011.4 hPa | 0 mm | - | 87 W/m² | - |
| 1777323576 | 22.78° C | 60% | 1011.6 hPa | 0 mm | - | 93 W/m² | - |
| 1777322670 | 22.78° C | 60% | 1011.4 hPa | 0 mm | - | 115 W/m² | - |
| 1777322367 | 22.78° C | 60% | 1011.4 hPa | 0 mm | - | 115 W/m² | - |
| 1777322063 | 22.78° C | 59% | 1011.7 hPa | 0 mm | - | 139 W/m² | - |
| 1777321760 | 23.33° C | 59% | 1011.7 hPa | 0 mm | - | 148 W/m² | - |
| 1777321457 | 23.33° C | 60% | 1011.7 hPa | 0 mm | - | 174 W/m² | - |
| 1777321154 | 23.33° C | 60% | 1011.7 hPa | 0 mm | - | 188 W/m² | - |
| 1777320852 | 23.33° C | 60% | 1011.6 hPa | 0 mm | - | 195 W/m² | - |
| 1777320548 | 23.33° C | 59% | 1011.8 hPa | 0 mm | - | 200 W/m² | - |
| 1777320246 | 23.33° C | 60% | 1011.8 hPa | 0 mm | - | 220 W/m² | - |
| 1777319942 | 23.33° C | 60% | 1011.8 hPa | 0 mm | - | 239 W/m² | - |
| 1777319640 | 23.33° C | 59% | 1011.6 hPa | 0 mm | - | 251 W/m² | - |
| 1777319336 | 23.33° C | 59% | 1011.8 hPa | 0 mm | - | 256 W/m² | - |
| 1777319034 | 23.33° C | 59% | 1011.9 hPa | 0 mm | - | 276 W/m² | - |
| 1777318730 | 23.33° C | 59% | 1011.9 hPa | 0 mm | - | 320 W/m² | - |
* Rain latest hour (hover to see other rain measurements)
** Current wind speed in m/s (hover to see current wind gust speed)